Theta_e
276 277 277 278 279 279 279 281 283 285 285 285 286 287 288 289 290 290 290 288 288 296
276 276 276 277 277 278 279 280 282 282 282 283 284 284 285 286 286 286 286 286 286 289
275 275 275 275 275 276 279 280 280 280 281 281 282 283 284 285 286 285 286 287 286 286
275 275 274 273 274 276 279 280 279 280 280 280 281 282 282 284 285 285 286 287 287 287
274 274 273 274 275 276 277 280 279 280 280 280 280 280 281 282 283 284 285 285 285 286
272 273 273 274 278 279 279 279 279 279 278 279 279 279 280 280 281 281 281 282 284 284
271 272 273 274 276 278 279 279 279 279 278 278 278 279 279 280 280 280 280 280 281 282
270 271 271 273 275 276 277 279 280 280 280 280 280 279 278 279 278 279 278 279 280 282
270 271 273 275 275 276 277 278 279 279 279 280 281 283 282 279 278 278 278 278 278 278
273 273 274 275 275 276 276 277 278 278 279 279 280 282 281 279 277 276 276 276 276 276
274 274 274 274 273 274 276 276 276 276 278 279 280 280 279 278 276 276 275 275 275 276
273 273 273 273 273 274 275 275 275 276 276 276 278 280 280 277 276 275 275 276 276 276
272 272 271 272 272 274 274 275 275 275 275 275 276 280 279 277 276 274 274 275 276 280
272 271 272 271 271 271 271 271 270 271 272 273 273 277 280 279 275 274 274 274 273 274
Wind_Speed
8 6 7 9 9 8 8 8 10 10 9 10 10 9 9 6 4 4 4 7 3 3
8 8 9 10 9 8 10 8 8 8 9 9 9 8 7 6 4 2 3 5 4 2
8 8 7 6 8 8 9 9 8 7 6 8 8 8 7 6 4 2 3 3 5 2
7 8 6 5 6 7 9 8 8 7 7 7 7 6 7 6 5 3 4 3 4 2
7 7 6 6 6 6 7 7 7 7 7 7 8 7 6 6 3 3 3 4 4 4
5 6 6 7 9 8 7 6 6 5 6 5 4 5 4 4 3 2 2 2 3 1
5 5 5 6 7 8 7 6 7 6 5 5 5 5 4 3 3 3 4 4 3 2
5 4 4 5 6 6 7 7 6 6 4 4 2 3 4 5 5 5 4 5 7 8
5 5 4 4 5 6 7 7 7 7 7 7 5 13 11 7 6 7 5 5 6 8
4 4 5 5 6 6 6 6 6 7 8 8 8 16 15 14 7 5 3 8 9 8
3 3 4 4 4 5 5 6 5 6 6 7 7 12 9 10 6 7 9 9 9 7
2 2 3 4 4 3 2 3 4 5 7 5 5 11 10 7 5 7 7 7 6 6
2 1 0 2 3 2 2 3 3 4 5 5 5 8 9 6 4 6 4 5 6 8
3 3 3 2 1 1 1 2 3 3 2 2 3 5 6 7 4 3 2 2 1 3
Wind_Direction
296 291 294 288 288 290 288 285 287 289 295 295 288 289 286 274 271 291 289 281 264 225
302 296 285 285 287 282 278 276 278 286 290 292 287 280 276 272 257 256 248 279 268 249
301 285 282 291 287 282 281 283 289 289 282 280 278 281 278 264 246 235 245 252 268 282
306 303 303 295 292 293 300 302 304 299 295 284 282 292 280 265 257 239 249 248 233 177
319 317 322 313 304 296 294 311 317 317 311 321 325 311 299 298 308 261 252 259 254 177
332 333 335 326 325 324 332 324 306 312 333 327 302 303 336 332 338 350 332 290 273 293
328 329 341 336 333 339 334 332 326 339 320 307 327 354 22 9 37 48 26 28 14 355
321 333 346 349 341 341 344 353 346 342 336 332 11 27 27 38 43 56 56 55 54 38
344 345 354 359 359 350 1 1 359 7 5 13 38 61 62 51 41 35 34 51 70 43
355 2 4 7 14 13 10 11 15 16 14 18 35 49 48 42 37 35 14 46 53 52
9 9 6 11 16 7 3 1 3 22 29 25 42 60 74 76 65 55 42 40 49 58
345 354 360 0 354 1 7 8 5 10 11 28 33 48 50 57 70 75 66 60 57 56
229 240 2 342 348 334 342 11 9 12 13 14 23 45 56 54 40 48 34 38 34 63
224 219 219 226 231 257 321 355 358 341 327 342 356 352 45 72 107 130 128 113 84 356